Regional Weather Roundup
Issued by NWS

Home | Current Version | Previous Version | Graphics & Text | Print | Product List | Glossary On
Versions: 1 2 3 4 5 6 7 8 9 10 11 12 13 14 15 16 17 18 19 20 21 22 23 24 25 26 27 28 29 30 31 32 33 34 35 36 37 38 39 40 41 42 43 44 45 46 47 48 49 50
000
ASUS43 KMPX 221501
RWRMN
WEATHER ROUNDUP FOR MINNESOTA
NATIONAL WEATHER SERVICE TWIN CITIES/CHANHASSEN MN
1000 AM CDT SAT JUL 22 2017


NOTE: "FAIR" INDICATES FEW OR NO CLOUDS BELOW 12,000 FEET WITH NO
SIGNIFICANT WEATHER AND/OR OBSTRUCTIONS TO VISIBILITY. N/A MEANS
CURRENT SKY AND/OR WEATHER CONDITIONS ARE NOT AVAILABLE.

MNZ060>063-068>070-221600-
   Twin Cities Metro

CITY           SKY/WX    TMP DP  RH WIND       PRES   REMARKS
TWIN CITIES    MOSUNNY   79  66  64 CALM      29.85F
ST PAUL        SUNNY     79  68  69 CALM      29.84F
CRYSTAL        SUNNY     77  64  64 VRB3      29.81F
BLAINE         PTSUNNY   79  66  65 CALM      29.83F
LAKEVILLE      SUNNY     75  68  78 N7        29.86F
EDEN PRAIRIE   SUNNY     79  68  69 E6        29.84F
SOUTH ST PAUL  SUNNY     78  66  67 CALM      29.84F
LAKE ELMO      FAIR      77  68  73 SW3       29.84F
$$
MNZ001>005-007-008-013>017-022>024-027-028-221600-
   Northwest Minnesota

CITY           SKY/WX    TMP DP  RH WIND       PRES   REMARKS
BEMIDJI        SUNNY     73  64  72 W7        29.82F
HALLOCK        SUNNY     72  64  78 W13G18    29.79S
ROSEAU         SUNNY     73  66  78 W9        29.78F
WARROAD        PTSUNNY   70  66  88 MISG      29.78F
CROOKSTON      SUNNY     73  66  78 W8        29.83R
FOSSTON        SUNNY     72  66  83 W12       29.83F
DETROIT LAKES  SUNNY     75  64  69 W7        29.87S
MOORHEAD       SUNNY     73  64  73 SW8       29.86S
PARK RAPIDS    SUNNY     77  66  68 W12       29.83S
MAHNOMEN       FAIR      73  66  78 W18G25    29.84S
$$
MNZ006-009>011-018-025>026-221600-
   North Central Minnesota

CITY           SKY/WX    TMP DP  RH WIND       PRES   REMARKS
BAUDETTE       CLOUDY    66  64  93 S5        29.79S
FLAG ISLAND    CLOUDY    66  64  94 S7        29.75F FOG
INTL FALLS     PTSUNNY   68  62  81 VRB5      29.80F
BIG FORK       CLOUDY    70  66  88 S5        29.82F
LONGVILLE      SUNNY     72  66  83 CALM      29.82F
GRAND RAPIDS   PTSUNNY   69  65  86 NW6       29.84F
CRANE LAKE     SUNNY     64  61  88 SW3       29.84F
ORR            CLOUDY    64  61  88 SW5       29.81F
COOK           CLOUDY    63  61  94 SW5       29.84F
WALKER         FAIR      72  65  80 CALM      29.82F
$$
MNZ012-019>021-037-221600-
   Northeast Minnesota

CITY           SKY/WX    TMP DP  RH WIND       PRES   REMARKS
DULUTH         CLOUDY    65  63  93 SW9       29.84R
ELY            CLOUDY    63  57  82 CALM      29.85S
HIBBING        CLOUDY    63  63 100 VRB3      29.83F
EVELETH        CLOUDY    63  59  85 CALM      29.85S
DULUTH HARBOR  CLOUDY    64  61  88 NE5       29.83R
TWO HARBORS    CLOUDY    68  63  83 CALM      29.82F
SILVER BAY     CLOUDY    63  55  77 NE8       29.83F
GRAND MARAIS     N/A     58  53  84 E10       29.83F
G MARAIS ARPRT CLOUDY    63  52  67 NE6       29.87F
$$
MNZ029>031-032-039>041-046>048-054>057-064-221600-
   West Central Minnesota

CITY           SKY/WX    TMP DP  RH WIND       PRES   REMARKS
FERGUS FALLS   SUNNY     73  70  88 W8        29.86S
WHEATON        SUNNY     73  66  78 S7        29.89S
MORRIS         SUNNY     79  66  65 SW6       29.86S
ALEXANDRIA     SUNNY     74  68  81 SW10      29.87F
ELBOW LAKE     FAIR      73  69  85 SW9       29.87R
WADENA         SUNNY     73  66  78 SW9       29.83S
GLENWOOD       SUNNY     75  66  73 S6        29.87S
APPLETON       MOSUNNY   79  66  65 S5        29.86S
BENSON         MOSUNNY   79  66  65 SW5       29.87F
ORTONVILLE     MOSUNNY   77  66  69 S3        29.88S
MADISON        MOSUNNY   79  68  69 CALM      29.88S
WILLMAR        FAIR      79  70  73 CALM      29.87S
$$
MNZ033>034-036-042>043-049>051-058-059-221600-
   Central Minnesota

CITY           SKY/WX    TMP DP  RH WIND       PRES   REMARKS
ST CLOUD       CLOUDY    74  68  81 S6        29.82F
SAUK CENTRE    FAIR      75  68  78 SW7       29.85S
PAYNESVILLE    SUNNY     78  67  69 S5        29.85F
AITKIN         MOSUNNY   72  66  83 N6        29.81R
PINE RIVER     SUNNY     72  66  83 N5        29.85F
BRAINERD       SUNNY     75  67  76 N3        29.81R
STAPLES        SUNNY     75  64  69 SW8       29.83R
LONG PRAIRIE   FAIR      72  68  88 S8        29.85S
LITTLE FALLS   MOSUNNY   72  64  78 S8        29.84S
LITCHFIELD     SUNNY     79  72  78 CALM      29.85F
BUFFALO        MOSUNNY   76  65  67 SE5       29.84F
MAPLE LAKE     SUNNY     78  70  76 SE3       29.84F
HUTCHINSON     SUNNY     78  71  79 E3        29.86F
$$
MNZ037-044-045-052-053-221600-
   East Central Minnesota

CITY           SKY/WX    TMP DP  RH WIND       PRES   REMARKS
PRINCETON      CLOUDY    75  68  78 SW5       29.83R
MORA           CLOUDY    70  66  88 SW7       29.83R
CAMBRIDGE      MOSUNNY   75  64  69 SW5       29.81R
RUSH CITY      CLOUDY    70  66  88 S6        29.81S
MOOSE LAKE     CLOUDY    64  64 100 NE3       29.80S
HINCKLEY       PTSUNNY   72  68  88 CALM      29.82R
CLOQUET        CLOUDY    66  63  88 W5        29.83F
MCGREGOR       CLOUDY    68  68 100 NE3       29.82S
$$
MNZ071>073-080-081-089-090-097-098-221600-
   Southwest Minnesota

CITY           SKY/WX    TMP DP  RH WIND       PRES   REMARKS
MONTEVIDEO     SUNNY     82  72  69 CALM      29.86S
GRANITE FALLS  MOSUNNY   80  71  75 SW3       29.88F
CANBY          MOSUNNY   77  69  75 CALM      29.90S
MARSHALL       MOSUNNY   76  69  79 W5        29.89F
REDWOOD FALLS  MOSUNNY   79  67  66 CALM      29.86F
OLIVIA         MOSUNNY   79  68  69 CALM      29.85F
PIPESTONE      SUNNY     75  68  78 NE3       29.92S
WINDOM         SUNNY     75  70  83 NW9       29.89F
WORTHINGTON    CLOUDY    75  70  84 N8        29.91F
JACKSON        CLOUDY    72  70  94 CALM      29.90F
SLAYTON        PTSUNNY   74  67  76 NW6       29.93S
$$
MNZ065>067-074>077-082>085-091>093-221600-
   South Central Minnesota

CITY           SKY/WX    TMP DP  RH WIND       PRES   REMARKS
MANKATO        PTSUNNY   74  69  85 N9        29.88F
NEW ULM        SUNNY     75  70  83 CALM      29.87F
ST JAMES       PTSUNNY   75  70  83 NW8       29.89R
FAIRMONT       CLOUDY    74  71  91 NW12      29.88R
GLENCOE        SUNNY     77  72  84 E6        29.85F
FARIBAULT      PTSUNNY   75  70  83 N8        29.87F
OWATONNA       CLOUDY    72  70  94 N6        29.89S
WASECA         CLOUDY    72  70  94 N8        29.90S
ALBERT LEA     CLOUDY    72  70  94 N12G17    29.88R FOG
$$
MNZ078>079-086>088-094>096-221600-
   Southeast Minnesota

CITY           SKY/WX    TMP DP  RH WIND       PRES   REMARKS
ROCHESTER      CLOUDY    69  69 100 N10       29.90R FOG
RED WING       SUNNY     77  64  65 N9        29.85F
STANTON        MOSUNNY   77  68  73 N8        29.86F
DODGE CENTER   CLOUDY    70  66  88 N9        29.90R FOG
WINONA         CLOUDY    72  70  94 CALM      29.86R
AUSTIN         CLOUDY    72  70  94 N8        29.88R
PRESTON        CLOUDY    69  68  96 NE3       29.88S FOG
$$
ABBREVIATIONS USED IN REMARKS
   TC - TEMPERATURES IN CELSIUS
  WCI - WIND CHILL INDEX
   HX - HEAT INDEX
  VSB - VISIBILITY
$$




USA.gov is the U.S. government's official web portal to all federal, state and local government web resources and services.